Total_Precipitation_Accumulation
0.00 0.01 0.07 0.05 0.01 0.01 0.01 0.01 0.01 0.01 0.02 0.04 0.04 0.03 0.02 0.07 0.12 0.15 0.05 0.02 0.02 0.06 0.07 0.05 0.04 0.07 0.06 0.03 0.02 0.01 0.01 0.01 0.00 0.00 0.01 0.03 0.05 0.05 0.03 0.02 0.01 0.00 0.00
0.00 0.00 0.04 0.05 0.02 0.03 0.04 0.01 0.01 0.00 0.02 0.07 0.07 0.05 0.05 0.14 0.14 0.07 0.04 0.02 0.04 0.04 0.02 0.03 0.02 0.03 0.02 0.01 0.00 0.00 0.00 0.00 0.00 0.00 0.00 0.01 0.03 0.02 0.01 0.01 0.03 0.04 0.05
0.00 0.01 0.02 0.05 0.04 0.04 0.01 0.00 0.00 0.01 0.03 0.06 0.08 0.08 0.17 0.18 0.07 0.03 0.01 0.02 0.02 0.02 0.01 0.02 0.02 0.02 0.01 0.01 0.00 0.00 0.00 0.00 0.00 0.00 0.00 0.00 0.00 0.00 0.00 0.00 0.03 0.03 0.05
0.00 0.02 0.03 0.07 0.05 0.03 0.00 0.00 0.01 0.03 0.04 0.06 0.12 0.21 0.28 0.14 0.02 0.01 0.01 0.01 0.02 0.01 0.02 0.02 0.01 0.01 0.00 0.00 0.00 0.00 0.00 0.00 0.00 0.00 0.00 0.00 0.00 0.00 0.00 0.00 0.00 0.01 0.02
0.02 0.02 0.03 0.07 0.07 0.03 0.00 0.00 0.03 0.03 0.04 0.05 0.17 0.38 0.41 0.10 0.00 0.00 0.01 0.03 0.02 0.02 0.02 0.01 0.01 0.00 0.00 0.00 0.00 0.00 0.00 0.00 0.00 0.00 0.00 0.00 0.00 0.00 0.00 0.00 0.00 0.00 0.00
0.03 0.03 0.04 0.11 0.10 0.01 0.00 0.01 0.04 0.04 0.03 0.05 0.19 0.37 0.35 0.05 0.01 0.00 0.02 0.02 0.01 0.02 0.02 0.01 0.00 0.00 0.00 0.00 0.00 0.00 0.00 0.00 0.00 0.00 0.00 0.00 0.00 0.00 0.00 0.00 0.00 0.00 0.00
0.04 0.07 0.06 0.17 0.08 0.00 0.00 0.02 0.06 0.04 0.03 0.08 0.20 0.33 0.26 0.04 0.01 0.01 0.02 0.01 0.01 0.02 0.02 0.00 0.00 0.00 0.00 0.00 0.00 0.00 0.00 0.00 0.00 0.00 0.00 0.00 0.00 0.00 0.00 0.00 0.00 0.00 0.00
0.04 0.10 0.15 0.22 0.09 0.01 0.00 0.02 0.05 0.04 0.06 0.15 0.26 0.36 0.20 0.02 0.01 0.01 0.01 0.01 0.01 0.02 0.01 0.00 0.00 0.00 0.00 0.00 0.00 0.00 0.00 0.00 0.00 0.00 0.00 0.00 0.00 0.00 0.00 0.00 0.00 0.00 0.00
0.13 0.16 0.22 0.20 0.11 0.03 0.01 0.02 0.03 0.05 0.09 0.20 0.28 0.28 0.08 0.02 0.01 0.01 0.01 0.01 0.02 0.02 0.01 0.00 0.00 0.00 0.00 0.00 0.00 0.00 0.00 0.00 0.00 0.00 0.00 0.00 0.00 0.00 0.00 0.00 0.00 0.00 0.00
0.59 0.44 0.32 0.29 0.11 0.00 0.02 0.02 0.02 0.05 0.06 0.14 0.17 0.10 0.01 0.00 0.01 0.01 0.01 0.02 0.02 0.02 0.00 0.00 0.00 0.00 0.00 0.00 0.00 0.00 0.00 0.00 0.00 0.00 0.00 0.00 0.00 0.00 0.00 0.00 0.00 0.00 0.00
1.22 1.01 0.69 0.41 0.15 0.04 0.04 0.05 0.02 0.04 0.07 0.11 0.11 0.07 0.00 0.00 0.00 0.00 0.00 0.02 0.02 0.01 0.00 0.00 0.00 0.00 0.00 0.00 0.00 0.00 0.00 0.00 0.00 0.00 0.00 0.00 0.00 0.00 0.00 0.00 0.00 0.00 0.00
1.59 1.16 1.09 0.74 0.25 0.05 0.08 0.06 0.02 0.03 0.07 0.06 0.06 0.04 0.01 0.00 0.00 0.00 0.00 0.02 0.02 0.00 0.00 0.00 0.00 0.00 0.00 0.00 0.00 0.00 0.00 0.00 0.00 0.00 0.00 0.00 0.00 0.00 0.00 0.00 0.00 0.00 0.00
2.38 1.41 1.27 0.97 0.64 0.23 0.18 0.12 0.02 0.02 0.04 0.06 0.07 0.05 0.01 0.00 0.00 0.00 0.00 0.00 0.00 0.00 0.00 0.00 0.00 0.00 0.00 0.00 0.00 0.00 0.00 0.00 0.00 0.00 0.00 0.00 0.00 0.00 0.00 0.00 0.00 0.00 0.00
2.85 2.00 1.42 1.07 0.75 0.53 0.43 0.27 0.03 0.02 0.02 0.07 0.05 0.07 0.02 0.00 0.00 0.00 0.00 0.00 0.00 0.00 0.00 0.00 0.00 0.00 0.00 0.00 0.00 0.00 0.00 0.00 0.00 0.00 0.00 0.00 0.00 0.00 0.00 0.00 0.00 0.01 0.03
1.31 1.58 1.72 1.23 0.93 0.73 0.60 0.52 0.13 0.02 0.01 0.03 0.03 0.06 0.04 0.00 0.00 0.00 0.00 0.00 0.00 0.00 0.00 0.00 0.00 0.00 0.00 0.00 0.00 0.00 0.00 0.00 0.00 0.00 0.00 0.00 0.00 0.00 0.00 0.00 0.00 0.00 0.03
0.67 1.16 1.69 1.49 1.00 1.24 1.02 0.72 0.51 0.10 0.00 0.00 0.02 0.01 0.05 0.01 0.00 0.00 0.00 0.00 0.00 0.00 0.00 0.00 0.00 0.00 0.00 0.00 0.00 0.00 0.00 0.00 0.00 0.00 0.00 0.00 0.00 0.00 0.00 0.00 0.00 0.01 0.03
0.33 1.05 1.58 1.34 0.87 0.78 1.39 1.22 0.61 0.36 0.06 0.00 0.00 0.00 0.00 0.00 0.00 0.00 0.00 0.00 0.00 0.00 0.00 0.00 0.00 0.00 0.00 0.00 0.00 0.00 0.00 0.00 0.00 0.00 0.00 0.00 0.00 0.00 0.00 0.00 0.00 0.01 0.03
0.50 0.89 1.44 1.22 0.64 0.55 0.83 1.33 1.00 0.48 0.19 0.02 0.00 0.01 0.00 0.00 0.00 0.00 0.00 0.00 0.00 0.00 0.00 0.00 0.00 0.00 0.00 0.00 0.00 0.00 0.00 0.00 0.00 0.00 0.00 0.00 0.00 0.00 0.00 0.00 0.00 0.02 0.07
0.47 0.61 0.76 0.71 0.33 0.12 0.25 0.78 1.07 0.62 0.23 0.10 0.04 0.01 0.02 0.01 0.00 0.00 0.00 0.01 0.00 0.00 0.00 0.00 0.00 0.00 0.00 0.00 0.00 0.00 0.00 0.00 0.00 0.00 0.00 0.00 0.00 0.00 0.00 0.01 0.01 0.01 0.01
0.83 0.65 0.61 0.40 0.42 0.24 0.34 0.56 0.80 0.78 0.53 0.19 0.09 0.05 0.03 0.03 0.03 0.02 0.02 0.01 0.00 0.00 0.00 0.00 0.00 0.00 0.00 0.00 0.00 0.00 0.00 0.00 0.00 0.00 0.00 0.00 0.00 0.00 0.00 0.00 0.00 0.00 0.00
1.61 0.94 0.77 0.60 0.42 0.39 0.26 0.40 0.56 0.40 0.68 0.38 0.20 0.13 0.06 0.10 0.10 0.11 0.10 0.04 0.02 0.01 0.01 0.01 0.00 0.00 0.01 0.01 0.04 0.02 0.00 0.00 0.00 0.00 0.00 0.00 0.00 0.00 0.00 0.00 0.00 0.00 0.00
1.04 1.03 0.92 0.40 0.36 0.31 0.28 0.27 0.68 0.68 0.78 0.62 0.49 0.55 0.38 0.33 0.24 0.18 0.16 0.19 0.19 0.13 0.11 0.08 0.08 0.21 0.25 0.29 0.20 0.14 0.07 0.05 0.05 0.02 0.01 0.00 0.00 0.00 0.00 0.00 0.00 0.00 0.00
0.97 0.78 0.83 0.90 0.73 0.74 0.94 1.13 1.13 1.16 1.15 1.17 1.14 0.93 0.88 1.02 1.07 0.89 0.77 0.59 0.67 0.79 0.78 0.76 0.63 0.62 0.53 0.52 0.42 0.36 0.26 0.12 0.04 0.02 0.01 0.00 0.00 0.00 0.00 0.00 0.00 0.00 0.00
1.35 1.35 1.38 1.45 1.16 0.86 1.10 1.16 0.89 1.17 1.18 1.14 1.24 1.30 1.40 1.44 1.47 1.34 1.39 1.70 1.51 1.32 1.25 1.21 1.04 0.75 0.51 0.45 0.36 0.29 0.22 0.14 0.11 0.05 0.01 0.00 0.00 0.00 0.00 0.00 0.00 0.00 0.00
1.62 1.51 1.57 1.58 1.24 1.01 1.11 1.15 1.20 1.03 1.09 0.97 0.79 0.83 0.93 0.91 0.75 0.71 0.75 0.89 1.14 0.98 0.81 0.74 0.68 0.49 0.38 0.31 0.25 0.17 0.13 0.09 0.05 0.04 0.02 0.00 0.00 0.00 0.00 0.00 0.00 0.00 0.00
1.50 1.03 1.16 0.94 0.81 0.71 0.89 0.82 1.06 0.83 0.98 0.89 0.68 0.53 0.47 0.50 0.59 0.41 0.34 0.35 0.28 0.27 0.28 0.22 0.17 0.13 0.08 0.04 0.02 0.02 0.02 0.02 0.02 0.02 0.01 0.01 0.00 0.00 0.00 0.00 0.00 0.00 0.00